Flag for Japan Weather past 2 weeks in Shizuoka, Japan

Now
71 °F

Mild.


Feels Like: 66 °F
Forecast: 67 / 81 °F
Wind: 7 mph from Southeast

Location: Omaezaki

Current Time: Sep 24, 2014 at 11:51:14 AM

Latest Report: Sep 24, 2014 at 11:00 AM


Visibility: 13 mi

Pressure: 30.06 "Hg

Humidity: 93%

Dew point: 69 °F

Location of ShizuokaLocation

Historic Weather in Shizuoka — Graph

°F

Shizuoka temperature yesterday

Maximum temperature yesterday: 79 °F (at 1:00 PM)
Minimum temperature yesterday: 68 °F (at 2:00 AM)
Average temperature yesterday: 73 °F

Past Weeks' High & Low Weather Summary

 TemperatureHumidityPressure
High83 °F (Sep 10, 12:00 PM)98% (Sep 11, 2:00 AM)30.18 "Hg (Sep 11, 2:00 AM)
Low65 °F (Sep 22, 1:00 AM)46% (Sep 21, 4:00 PM)29.65 "Hg (Sep 9, 2:00 PM)
Average73 °F74%29.91 "Hg
* Reported Sep 9 10:00 AM — Sep 24 10:00 AM, Shizuoka, Weather by CustomWeather, © 2014

Note: Actual official high and low records may vary slightly from our data, if they occured in-between our weather recording intervals... More about our weather records

Advertising

Shizuoka weather history for previous 24 hours

 ConditionsComfort  
Time TempWeatherWind HumidityBarometerVisibility
10:00 AM
Sep 24
72 °FLight rain. Cloudy.6 mph83%30.08 "Hg7 mi
9:00 AM72 °FLight rain. Cloudy.3 mph82%30.09 "Hg10 mi
8:00 AM73 °FMild.7 mph81%30.09 "Hg11 mi
7:00 AM71 °FMild.7 mph83%30.10 "Hg12 mi
6:00 AM70 °FMild.7 mph85%30.10 "Hg12 mi
5:00 AM70 °FMild.3 mph83%30.10 "Hg12 mi
4:00 AM71 °FMild.5 mph82%30.09 "Hg12 mi
3:00 AM71 °FMild.6 mph84%30.11 "Hg12 mi
2:00 AM70 °FMild.5 mph83%30.12 "Hg12 mi
1:00 AM70 °FMild.5 mph84%30.12 "Hg12 mi
12:00 AM70 °FMild.5 mph84%30.13 "Hg12 mi
11:00 PM
Sep 23
73 °FMild.6 mph74%30.13 "Hg12 mi
10:00 PM73 °FMild.8 mph71%30.13 "Hg12 mi
9:00 PM74 °FMild.8 mph69%30.16 "Hg12 mi
8:00 PM74 °FMild.9 mph68%30.15 "Hg12 mi
7:00 PM74 °FMild.9 mph67%30.14 "Hg12 mi
6:00 PM74 °FMild.10 mph69%30.12 "Hg12 mi
5:00 PM75 °FMild.12 mph64%30.11 "Hg12 mi
4:00 PM76 °FMild.12 mph59%30.11 "Hg12 mi
3:00 PM78 °FWarm.12 mph57%30.10 "Hg12 mi
2:00 PM78 °FWarm.9 mph57%30.11 "Hg12 mi
1:00 PM79 °FWarm.8 mph53%30.12 "Hg12 mi
12:00 PM78 °FWarm.6 mph53%30.14 "Hg12 mi
11:00 AM77 °FMild.8 mph59%30.16 "Hg12 mi
Weather by CustomWeather, © 2014

See weather overviewHow to use our weather pages